Time,TemperatureF,DewpointF,PressureIn,WindDirection,WindDirectionDegrees,WindSpeedMPH,WindSpeedGustMPH,Humidity,HourlyPrecipIn,Conditions,Clouds,dailyrainin,SolarRadiationWatts/m^2,SoftwareType,DateUTC
2013-02-15 00:07:00,43.2,14.7,29.78,NW,315,0.0,0.0,21,0.00,,,-99.99,0.0,Linux-Irox,2013-02-15 08:07:00,
2013-02-15 00:17:00,43.5,15.1,29.78,NNE,22,0.0,0.0,21,0.00,,,-99.99,0.0,Linux-Irox,2013-02-15 08:17:00,
2013-02-15 00:27:00,44.6,16.2,29.79,SE,135,0.0,0.0,21,0.00,,,-99.99,0.0,Linux-Irox,2013-02-15 08:27:00,
2013-02-15 00:37:00,44.1,16.0,29.79,NNE,22,0.0,0.0,22,0.00,,,-99.99,0.0,Linux-Irox,2013-02-15 08:37:00,
2013-02-15 00:47:00,44.1,16.0,29.79,NNE,22,0.0,0.0,22,0.00,,,-99.99,0.0,Linux-Irox,2013-02-15 08:47:00,
2013-02-15 00:57:00,43.9,15.8,29.79,ENE,67,0.0,0.0,22,0.00,,,-99.99,0.0,Linux-Irox,2013-02-15 08:57:00,
2013-02-15 01:07:00,43.7,15.6,29.78,NE,45,0.0,0.0,22,0.00,,,-99.99,0.0,Linux-Irox,2013-02-15 09:07:00,
2013-02-15 01:17:00,44.4,16.7,29.78,NE,45,0.0,0.0,23,0.00,,,-99.99,0.0,Linux-Irox,2013-02-15 09:17:00,
2013-02-15 01:27:00,43.3,15.6,29.79,West,270,0.0,0.0,23,0.00,,,-99.99,0.0,Linux-Irox,2013-02-15 09:27:00,
2013-02-15 01:37:00,42.6,14.9,29.79,ENE,67,0.0,0.0,23,0.00,,,-99.99,0.0,Linux-Irox,2013-02-15 09:37:00,
2013-02-15 01:47:00,42.4,15.1,29.79,NE,45,0.0,0.0,24,0.00,,,-99.99,0.0,Linux-Irox,2013-02-15 09:47:00,
2013-02-15 01:57:00,42.6,15.3,29.79,NE,45,0.0,0.0,24,0.00,,,-99.99,0.0,Linux-Irox,2013-02-15 09:57:00,
2013-02-15 02:07:00,43.0,15.6,29.79,ENE,67,0.0,0.0,24,0.00,,,-99.99,0.0,Linux-Irox,2013-02-15 10:07:00,
2013-02-15 02:17:00,42.8,15.8,29.79,ENE,67,0.0,0.0,25,0.00,,,-99.99,0.0,Linux-Irox,2013-02-15 10:17:00,
2013-02-15 02:27:00,42.1,15.1,29.79,NNE,22,0.0,0.0,25,0.00,,,-99.99,0.0,Linux-Irox,2013-02-15 10:27:00,
2013-02-15 02:37:00,42.1,15.1,29.79,NNE,22,0.0,0.0,25,0.00,,,-99.99,0.0,Linux-Irox,2013-02-15 10:37:00,
2013-02-15 02:47:00,42.1,15.4,29.79,ENE,67,0.0,0.0,26,0.00,,,-99.99,0.0,Linux-Irox,2013-02-15 10:47:00,
2013-02-15 02:57:00,41.7,15.4,29.79,ENE,67,0.0,0.0,27,0.00,,,-99.99,0.0,Linux-Irox,2013-02-15 10:57:00,
2013-02-15 03:07:00,41.9,15.6,29.79,ENE,67,0.0,0.0,27,0.00,,,-99.99,0.0,Linux-Irox,2013-02-15 11:07:00,
2013-02-15 03:17:00,41.4,15.1,29.79,ENE,67,0.0,0.0,27,0.00,,,-99.99,0.0,Linux-Irox,2013-02-15 11:17:00,
2013-02-15 03:27:00,41.5,14.9,29.79,ENE,67,0.0,0.0,26,0.00,,,-99.99,0.0,Linux-Irox,2013-02-15 11:27:00,
2013-02-15 03:37:00,41.7,15.1,29.79,NNE,22,0.0,0.0,26,0.00,,,-99.99,0.0,Linux-Irox,2013-02-15 11:37:00,
2013-02-15 03:47:00,41.2,13.8,29.79,NE,45,0.0,0.0,24,0.00,,,-99.99,0.0,Linux-Irox,2013-02-15 11:47:00,
2013-02-15 03:57:00,41.0,13.6,29.79,ENE,67,0.0,0.0,24,0.00,,,-99.99,0.0,Linux-Irox,2013-02-15 11:57:00,
2013-02-15 04:07:00,40.1,12.7,29.79,NNE,22,0.0,0.0,24,0.00,,,-99.99,0.0,Linux-Irox,2013-02-15 12:07:00,
2013-02-15 04:17:00,40.3,12.9,29.79,NE,45,0.0,0.0,24,0.00,,,-99.99,0.0,Linux-Irox,2013-02-15 12:17:00,
2013-02-15 04:27:00,41.0,12.6,29.79,SE,135,0.0,0.0,21,0.00,,,-99.99,0.0,Linux-Irox,2013-02-15 12:27:00,
2013-02-15 04:37:00,40.6,11.8,29.79,ENE,67,0.0,0.0,20,0.00,,,-99.99,0.0,Linux-Irox,2013-02-15 12:37:00,
2013-02-15 04:47:00,40.1,11.3,29.79,ENE,67,0.0,0.0,20,0.00,,,-99.99,0.0,Linux-Irox,2013-02-15 12:47:00,
2013-02-15 04:57:00,39.6,10.8,29.79,ENE,67,0.0,0.0,20,0.00,,,-99.99,0.0,Linux-Irox,2013-02-15 12:57:00,
2013-02-15 05:07:00,39.0,10.6,29.79,NE,45,0.0,0.0,21,0.00,,,-99.99,0.0,Linux-Irox,2013-02-15 13:07:00,
2013-02-15 05:17:00,38.7,10.2,29.79,NE,45,0.0,0.0,21,0.00,,,-99.99,0.0,Linux-Irox,2013-02-15 13:17:00,
2013-02-15 05:27:00,39.2,10.4,29.79,NNE,22,0.0,0.0,20,0.00,,,-99.99,0.0,Linux-Irox,2013-02-15 13:27:00,
2013-02-15 05:37:00,39.6,10.8,29.79,SSW,202,0.0,0.0,20,0.00,,,-99.99,0.0,Linux-Irox,2013-02-15 13:37:00,
2013-02-15 05:47:00,39.6,10.8,29.80,NE,45,0.0,0.0,20,0.00,,,-99.99,0.0,Linux-Irox,2013-02-15 13:47:00,
2013-02-15 05:57:00,39.4,10.6,29.80,East,90,0.0,0.0,20,0.00,,,-99.99,0.0,Linux-Irox,2013-02-15 13:57:00,
2013-02-15 06:01:00,39.2,10.4,29.80,NE,45,0.0,0.0,20,0.00,,,-99.99,0.0,Linux-Irox,2013-02-15 14:01:00,
2013-02-15 06:07:00,39.2,10.4,29.80,NE,45,0.0,0.0,20,0.00,,,-99.99,0.0,Linux-Irox,2013-02-15 14:07:00,
2013-02-15 06:16:00,38.8,10.0,29.80,ENE,67,0.0,0.0,20,0.00,,,-99.99,0.0,Linux-Irox,2013-02-15 14:16:00,
2013-02-15 06:17:00,38.8,10.0,29.80,ENE,67,0.0,0.0,20,0.00,,,-99.99,0.0,Linux-Irox,2013-02-15 14:17:00,
2013-02-15 06:27:00,38.7,9.9,29.80,NE,45,0.0,0.0,20,0.00,,,-99.99,0.0,Linux-Irox,2013-02-15 14:27:00,
2013-02-15 06:31:00,38.7,9.1,29.80,NE,45,0.0,0.0,18,0.00,,,-99.99,0.0,Linux-Irox,2013-02-15 14:31:00,
2013-02-15 06:37:00,38.8,9.3,29.80,NNE,22,0.0,0.0,18,0.00,,,-99.99,0.0,Linux-Irox,2013-02-15 14:37:00,
2013-02-15 06:46:00,38.8,9.3,29.80,ENE,67,0.0,0.0,18,0.00,,,-99.99,0.0,Linux-Irox,2013-02-15 14:46:00,
2013-02-15 06:47:00,38.8,9.3,29.80,ENE,67,0.0,0.0,18,0.00,,,-99.99,0.0,Linux-Irox,2013-02-15 14:47:00,
2013-02-15 06:57:00,38.8,9.3,29.80,NE,45,0.0,0.0,18,0.00,,,-99.99,0.0,Linux-Irox,2013-02-15 14:57:00,
2013-02-15 07:01:00,39.0,9.5,29.80,ENE,67,0.0,0.0,18,0.00,,,-99.99,0.0,Linux-Irox,2013-02-15 15:01:00,
2013-02-15 07:07:00,39.2,9.3,29.80,NNE,22,0.0,0.0,17,0.00,,,-99.99,0.0,Linux-Irox,2013-02-15 15:07:00,
2013-02-15 07:16:00,39.9,10.0,29.80,East,90,0.0,0.0,17,0.00,,,-99.99,0.0,Linux-Irox,2013-02-15 15:16:00,
2013-02-15 07:17:00,39.9,10.0,29.80,East,90,0.0,0.0,17,0.00,,,-99.99,0.0,Linux-Irox,2013-02-15 15:17:00,
2013-02-15 07:27:00,40.8,10.9,29.80,ENE,67,0.0,0.0,17,0.00,,,-99.99,0.0,Linux-Irox,2013-02-15 15:27:00,
2013-02-15 07:31:00,41.5,11.3,29.80,ENE,67,0.0,0.0,16,0.00,,,-99.99,0.0,Linux-Irox,2013-02-15 15:31:00,
2013-02-15 07:37:00,42.1,10.8,29.80,ENE,67,0.0,0.0,13,0.00,,,-99.99,0.0,Linux-Irox,2013-02-15 15:37:00,
2013-02-15 07:46:00,43.0,11.7,29.80,ENE,67,0.0,0.0,13,0.00,,,-99.99,0.0,Linux-Irox,2013-02-15 15:46:00,
2013-02-15 07:47:00,43.2,11.8,29.80,ENE,67,0.0,0.0,13,0.00,,,-99.99,0.0,Linux-Irox,2013-02-15 15:47:00,
2013-02-15 07:57:00,44.6,13.3,29.80,ENE,67,0.0,0.0,13,0.00,,,-99.99,0.0,Linux-Irox,2013-02-15 15:57:00,
2013-02-15 08:01:00,45.1,13.8,29.80,ENE,67,0.0,0.0,13,0.00,,,-99.99,0.0,Linux-Irox,2013-02-15 16:01:00,
2013-02-15 08:16:00,48.0,16.7,29.80,East,90,0.2,0.0,13,0.00,,,-99.99,0.0,Linux-Irox,2013-02-15 16:16:00,
2013-02-15 08:31:00,50.0,18.0,29.82,ESE,112,0.0,0.0,11,0.00,,,-99.99,0.0,Linux-Irox,2013-02-15 16:31:00,
2013-02-15 08:46:00,53.1,19.9,29.81,SE,135,0.0,0.0,8,0.00,,,-99.99,0.0,Linux-Irox,2013-02-15 16:46:00,
2013-02-15 09:01:00,55.8,21.9,29.82,ENE,67,0.0,0.0,6,0.00,,,-99.99,0.0,Linux-Irox,2013-02-15 17:01:00,
2013-02-15 09:16:00,57.4,23.2,29.82,East,90,0.9,2.5,5,0.00,,,-99.99,0.0,Linux-Irox,2013-02-15 17:16:00,
2013-02-15 09:31:00,60.8,26.6,29.81,SE,135,0.7,3.3,5,0.00,,,-99.99,0.0,Linux-Irox,2013-02-15 17:31:00,
2013-02-15 09:46:00,62.4,28.2,29.81,SSW,202,1.1,0.0,5,0.00,,,-99.99,0.0,Linux-Irox,2013-02-15 17:46:00,
2013-02-15 10:01:00,63.1,28.9,29.82,WSW,247,1.8,0.0,5,0.00,,,-99.99,0.0,Linux-Irox,2013-02-15 18:01:00,
2013-02-15 10:16:00,64.9,30.7,29.82,WNW,292,2.2,6.7,5,0.00,,,-99.99,0.0,Linux-Irox,2013-02-15 18:16:00,
2013-02-15 10:31:00,64.9,30.7,29.82,WSW,247,4.5,4.5,5,0.00,,,-99.99,0.0,Linux-Irox,2013-02-15 18:31:00,
2013-02-15 10:46:00,65.8,31.6,29.83,WSW,247,4.9,4.9,5,0.00,,,-99.99,0.0,Linux-Irox,2013-02-15 18:46:00,
2013-02-15 11:01:00,65.8,31.6,29.83,WSW,247,4.7,8.9,5,0.00,,,-99.99,0.0,Linux-Irox,2013-02-15 19:01:00,
2013-02-15 11:16:00,66.4,32.2,29.83,West,270,4.9,6.9,5,0.00,,,-99.99,0.0,Linux-Irox,2013-02-15 19:16:00,
2013-02-15 11:31:00,66.4,32.2,29.84,SW,225,4.7,4.7,5,0.00,,,-99.99,0.0,Linux-Irox,2013-02-15 19:31:00,
2013-02-15 11:46:00,66.6,32.4,29.83,WSW,247,5.8,6.0,5,0.00,,,-99.99,0.0,Linux-Irox,2013-02-15 19:46:00,
2013-02-15 12:01:00,66.6,32.4,29.83,SW,225,3.8,3.8,5,0.00,,,-99.99,0.0,Linux-Irox,2013-02-15 20:01:00,
2013-02-15 12:16:00,65.8,31.6,29.83,NNE,22,2.2,0.0,5,0.00,,,-99.99,0.0,Linux-Irox,2013-02-15 20:16:00,
2013-02-15 12:31:00,66.6,32.4,29.83,SW,225,4.7,6.2,5,0.00,,,-99.99,0.0,Linux-Irox,2013-02-15 20:31:00,
2013-02-15 12:46:00,66.4,32.2,29.83,NNE,22,6.0,0.0,5,0.00,,,-99.99,0.0,Linux-Irox,2013-02-15 20:46:00,
2013-02-15 13:01:00,66.4,32.2,29.83,WSW,247,6.7,6.7,5,0.00,,,-99.99,0.0,Linux-Irox,2013-02-15 21:01:00,
2013-02-15 13:16:00,66.4,32.2,29.83,West,270,5.8,6.7,5,0.00,,,-99.99,0.0,Linux-Irox,2013-02-15 21:16:00,
2013-02-15 13:31:00,66.6,32.4,29.83,SW,225,4.0,4.7,5,0.00,,,-99.99,0.0,Linux-Irox,2013-02-15 21:31:00,
2013-02-15 13:46:00,66.7,32.5,29.82,WSW,247,5.6,5.6,5,0.00,,,-99.99,0.0,Linux-Irox,2013-02-15 21:46:00,
2013-02-15 14:01:00,66.9,32.7,29.82,NW,315,5.1,5.1,5,0.00,,,-99.99,0.0,Linux-Irox,2013-02-15 22:01:00,
2013-02-15 14:16:00,66.7,32.5,29.82,NW,315,5.4,8.7,5,0.00,,,-99.99,0.0,Linux-Irox,2013-02-15 22:16:00,
2013-02-15 14:31:00,66.7,32.5,29.80,SSE,157,3.1,3.1,5,0.00,,,-99.99,0.0,Linux-Irox,2013-02-15 22:31:00,
2013-02-15 14:46:00,66.9,32.7,29.78,WSW,247,3.6,9.8,5,0.00,,,-99.99,0.0,Linux-Irox,2013-02-15 22:46:00,
2013-02-15 15:01:00,66.6,32.4,29.74,WSW,247,5.6,6.9,5,0.00,,,-99.99,0.0,Linux-Irox,2013-02-15 23:01:00,
2013-02-15 15:16:00,65.1,30.9,29.74,SE,135,3.1,0.0,5,0.00,,,-99.99,0.0,Linux-Irox,2013-02-15 23:16:00,
2013-02-15 15:31:00,64.6,30.4,29.76,ENE,67,4.0,6.2,5,0.00,,,-99.99,0.0,Linux-Irox,2013-02-15 23:31:00,
2013-02-15 15:46:00,64.0,29.8,29.78,West,270,4.7,5.8,5,0.00,,,-99.99,0.0,Linux-Irox,2013-02-15 23:46:00,
2013-02-15 16:01:00,63.5,29.3,29.77,West,270,2.5,4.2,5,0.00,,,-99.99,0.0,Linux-Irox,2013-02-16 00:01:00,
2013-02-15 16:16:00,62.4,28.2,29.77,SSW,202,2.9,5.1,5,0.00,,,-99.99,0.0,Linux-Irox,2013-02-16 00:16:00,
2013-02-15 16:31:00,62.2,28.0,29.77,NNW,337,0.2,0.0,5,0.00,,,-99.99,0.0,Linux-Irox,2013-02-16 00:31:00,
2013-02-15 16:46:00,61.3,27.1,29.78,NNE,22,0.4,0.0,5,0.00,,,-99.99,0.0,Linux-Irox,2013-02-16 00:46:00,
2013-02-15 17:01:00,60.4,26.2,29.78,ENE,67,0.0,0.0,5,0.00,,,-99.99,0.0,Linux-Irox,2013-02-16 01:01:00,
2013-02-15 17:16:00,59.0,24.8,29.78,NNE,22,0.0,0.0,5,0.00,,,-99.99,0.0,Linux-Irox,2013-02-16 01:16:00,
2013-02-15 17:31:00,56.8,22.6,29.77,NNE,22,0.0,0.0,5,0.00,,,-99.99,0.0,Linux-Irox,2013-02-16 01:31:00,
2013-02-15 17:46:00,55.0,20.8,29.78,NNE,22,0.0,0.0,5,0.00,,,-99.99,0.0,Linux-Irox,2013-02-16 01:46:00,
2013-02-15 18:01:00,54.0,20.1,29.79,NNE,22,0.0,0.0,6,0.00,,,-99.99,0.0,Linux-Irox,2013-02-16 02:01:00,
2013-02-15 18:16:00,53.1,19.9,29.79,NNE,22,0.0,0.0,8,0.00,,,-99.99,0.0,Linux-Irox,2013-02-16 02:16:00,
2013-02-15 18:31:00,52.9,19.8,29.79,NNE,22,0.0,0.0,8,0.00,,,-99.99,0.0,Linux-Irox,2013-02-16 02:31:00,
2013-02-15 18:46:00,52.0,18.9,29.79,NNE,22,0.0,0.0,8,0.00,,,-99.99,0.0,Linux-Irox,2013-02-16 02:46:00,
2013-02-15 19:01:00,51.1,18.3,29.81,ENE,67,0.0,0.0,9,0.00,,,-99.99,0.0,Linux-Irox,2013-02-16 03:01:00,
2013-02-15 19:16:00,50.5,17.8,29.81,NNE,22,0.0,0.0,9,0.00,,,-99.99,0.0,Linux-Irox,2013-02-16 03:16:00,
2013-02-15 19:31:00,50.4,17.6,29.81,NE,45,0.0,0.0,9,0.00,,,-99.99,0.0,Linux-Irox,2013-02-16 03:31:00,
2013-02-15 19:46:00,50.0,17.2,29.80,NNE,22,0.0,0.0,9,0.00,,,-99.99,0.0,Linux-Irox,2013-02-16 03:46:00,
2013-02-15 20:01:00,48.9,16.5,29.80,ESE,112,0.0,0.0,10,0.00,,,-99.99,0.0,Linux-Irox,2013-02-16 04:01:00,
2013-02-15 20:16:00,49.1,16.7,29.80,NE,45,0.0,0.0,10,0.00,,,-99.99,0.0,Linux-Irox,2013-02-16 04:16:00,
2013-02-15 20:31:00,48.9,16.5,29.81,ENE,67,0.0,0.0,10,0.00,,,-99.99,0.0,Linux-Irox,2013-02-16 04:31:00,
2013-02-15 20:46:00,48.4,16.7,29.81,ENE,67,0.0,0.0,12,0.00,,,-99.99,0.0,Linux-Irox,2013-02-16 04:46:00,
2013-02-15 21:01:00,49.5,17.1,29.82,ENE,67,0.0,0.0,10,0.00,,,-99.99,0.0,Linux-Irox,2013-02-16 05:01:00,